JIA25 KSTL-KMEM

Flight info

Callsign JIA25
Flight time 0h 46m
Altitude 32000
Route CHUUC6 MYERZ WHOLL BRBBQ3
Aircraft CRJ9/M-SDFGIRWY/S

Departure

Time 2026-05-05 05:08
Airport St. Louis Lambert International Airport (KSTL)

Arrival

Time 2026-05-05 05:54
Airport Memphis International Airport (KMEM)
Time Latitude Longitude Altitude Speed Heading
2026-05-05 04:35 38.74566 -90.36871 0 ft 0 kts 190°
2026-05-05 04:44 38.74565 -90.36871 553 ft 0 kts 190°
2026-05-05 04:53 38.74564 -90.36871 554 ft 0 kts 190°
2026-05-05 04:56 38.74577 -90.36868 560 ft 4 kts 189°
2026-05-05 04:56 38.74603 -90.36863 552 ft 4 kts 189°
2026-05-05 04:56 38.74630 -90.36857 558 ft 4 kts 188°
2026-05-05 04:56 38.74650 -90.36854 564 ft 1 kts 188°
2026-05-05 04:57 38.74653 -90.36853 561 ft 0 kts 188°
2026-05-05 05:00 38.74646 -90.36856 556 ft 0 kts 212°
2026-05-05 05:01 38.74645 -90.36857 556 ft 0 kts 233°
2026-05-05 05:01 38.74645 -90.36861 555 ft 0 kts 267°
2026-05-05 05:01 38.74649 -90.36884 562 ft 9 kts 286°
2026-05-05 05:01 38.74670 -90.36918 558 ft 5 kts 329°
2026-05-05 05:02 38.74694 -90.36943 558 ft 4 kts 309°
2026-05-05 05:02 38.74707 -90.36967 559 ft 3 kts 305°
2026-05-05 05:02 38.74717 -90.36984 554 ft 3 kts 304°
2026-05-05 05:02 38.74731 -90.37010 561 ft 4 kts 303°
2026-05-05 05:03 38.74751 -90.37050 559 ft 6 kts 303°
2026-05-05 05:03 38.74779 -90.37108 559 ft 9 kts 302°
2026-05-05 05:03 38.74818 -90.37187 560 ft 12 kts 302°
2026-05-05 05:03 38.74861 -90.37276 558 ft 12 kts 296°
2026-05-05 05:04 38.74884 -90.37366 556 ft 10 kts 295°
2026-05-05 05:04 38.74917 -90.37440 561 ft 10 kts 306°
2026-05-05 05:04 38.74959 -90.37521 552 ft 12 kts 302°
2026-05-05 05:04 38.75004 -90.37614 551 ft 13 kts 302°
2026-05-05 05:05 38.75056 -90.37718 548 ft 15 kts 302°
2026-05-05 05:05 38.75116 -90.37839 546 ft 17 kts 303°
2026-05-05 05:05 38.75175 -90.37961 547 ft 16 kts 300°
2026-05-05 05:05 38.75255 -90.38011 545 ft 11 kts 27°
2026-05-05 05:06 38.75300 -90.37976 545 ft 0 kts 32°
2026-05-05 05:06 38.75303 -90.37973 545 ft 2 kts 32°
2026-05-05 05:06 38.75331 -90.37950 545 ft 8 kts 32°
2026-05-05 05:06 38.75361 -90.37874 544 ft 13 kts 98°
2026-05-05 05:07 38.75307 -90.37740 545 ft 33 kts 123°
2026-05-05 05:07 38.75117 -90.37379 549 ft 49 kts 123°
2026-05-05 05:07 38.74934 -90.36998 559 ft 69 kts 126°
2026-05-05 05:07 38.74555 -90.36227 566 ft 135 kts 119°
2026-05-05 05:08 38.74063 -90.35103 935 ft 144 kts 125°
2026-05-05 05:08 38.73550 -90.34062 1411 ft 141 kts 126°
2026-05-05 05:08 38.73005 -90.32903 1790 ft 157 kts 120°
2026-05-05 05:08 38.72439 -90.31663 2192 ft 168 kts 125°
2026-05-05 05:09 38.71814 -90.30381 2707 ft 165 kts 128°
2026-05-05 05:09 38.71182 -90.29178 3285 ft 167 kts 130°
2026-05-05 05:09 38.70425 -90.27864 3399 ft 198 kts 138°
2026-05-05 05:09 38.69165 -90.27111 3453 ft 208 kts 184°
2026-05-05 05:10 38.67772 -90.27595 3592 ft 213 kts 209°
2026-05-05 05:10 38.66374 -90.28303 3725 ft 226 kts 207°
2026-05-05 05:10 38.64813 -90.28956 4126 ft 238 kts 203°
2026-05-05 05:10 38.63344 -90.29675 5212 ft 215 kts 218°
2026-05-05 05:11 38.62124 -90.30728 5795 ft 216 kts 223°
2026-05-05 05:11 38.60957 -90.31916 6487 ft 214 kts 226°
2026-05-05 05:11 38.59816 -90.33158 7123 ft 220 kts 227°
2026-05-05 05:11 38.58622 -90.34489 7854 ft 227 kts 227°
2026-05-05 05:12 38.57419 -90.35767 8924 ft 226 kts 227°
2026-05-05 05:12 38.56188 -90.37056 9776 ft 231 kts 227°
2026-05-05 05:12 38.54933 -90.38357 10580 ft 235 kts 224°
2026-05-05 05:12 38.53448 -90.39322 11268 ft 253 kts 209°
2026-05-05 05:13 38.51693 -90.40063 11516 ft 283 kts 203°
2026-05-05 05:13 38.49704 -90.40791 11929 ft 304 kts 203°
2026-05-05 05:13 38.47617 -90.41584 12415 ft 321 kts 203°
2026-05-05 05:13 38.45428 -90.42437 12960 ft 336 kts 203°
2026-05-05 05:14 38.43175 -90.43326 13707 ft 342 kts 204°
2026-05-05 05:14 38.40879 -90.44234 14474 ft 345 kts 203°
2026-05-05 05:14 38.38594 -90.45136 15188 ft 350 kts 204°
2026-05-05 05:14 38.36257 -90.46058 15967 ft 353 kts 203°
2026-05-05 05:15 38.33895 -90.46993 16676 ft 357 kts 204°
2026-05-05 05:15 38.31502 -90.47940 17385 ft 361 kts 204°
2026-05-05 05:15 38.29085 -90.48895 18072 ft 365 kts 204°
2026-05-05 05:15 38.26648 -90.49858 18663 ft 369 kts 204°
2026-05-05 05:16 38.24176 -90.50830 19243 ft 373 kts 204°
2026-05-05 05:16 38.21696 -90.51808 19813 ft 376 kts 203°
2026-05-05 05:16 38.19176 -90.52799 20380 ft 380 kts 203°
2026-05-05 05:16 38.16641 -90.53799 20910 ft 383 kts 203°
2026-05-05 05:17 38.14080 -90.54812 21462 ft 387 kts 203°
2026-05-05 05:17 38.11499 -90.55831 22001 ft 390 kts 203°
2026-05-05 05:17 38.08917 -90.56807 22529 ft 396 kts 199°
2026-05-05 05:17 38.06172 -90.57354 23028 ft 405 kts 191°
2026-05-05 05:18 38.03328 -90.57590 23511 ft 410 kts 188°
2026-05-05 05:18 38.00466 -90.57769 23938 ft 413 kts 188°
2026-05-05 05:18 37.97594 -90.57982 24352 ft 414 kts 189°
2026-05-05 05:18 37.94708 -90.58284 24760 ft 416 kts 191°
2026-05-05 05:19 37.91820 -90.58612 25164 ft 418 kts 191°
2026-05-05 05:19 37.88912 -90.58927 25547 ft 421 kts 191°
2026-05-05 05:19 37.86095 -90.59232 25920 ft 423 kts 191°
2026-05-05 05:19 37.83036 -90.59569 26310 ft 425 kts 191°
2026-05-05 05:20 37.80115 -90.59886 26663 ft 428 kts 191°
2026-05-05 05:20 37.77101 -90.60211 27028 ft 430 kts 191°
2026-05-05 05:20 37.74117 -90.60534 27372 ft 432 kts 191°
2026-05-05 05:20 37.71151 -90.60855 27703 ft 434 kts 191°
2026-05-05 05:21 37.68129 -90.61186 28035 ft 436 kts 191°
2026-05-05 05:21 37.65092 -90.61515 28350 ft 439 kts 191°
2026-05-05 05:21 37.62042 -90.61845 28662 ft 441 kts 191°
2026-05-05 05:21 37.58962 -90.62177 28969 ft 443 kts 191°
2026-05-05 05:22 37.55883 -90.62510 29270 ft 445 kts 191°
2026-05-05 05:22 37.52794 -90.62844 29548 ft 447 kts 191°
2026-05-05 05:22 37.49686 -90.63181 29816 ft 449 kts 191°
2026-05-05 05:22 37.46561 -90.63519 30060 ft 451 kts 191°
2026-05-05 05:23 37.43425 -90.63856 30275 ft 453 kts 191°
2026-05-05 05:23 37.40273 -90.64196 30496 ft 455 kts 191°
2026-05-05 05:23 37.37110 -90.64538 30696 ft 457 kts 192°
2026-05-05 05:23 37.33981 -90.64874 30909 ft 459 kts 192°
2026-05-05 05:24 37.30782 -90.65221 31014 ft 463 kts 192°
2026-05-05 05:24 37.24272 -90.65919 31122 ft 473 kts 192°
2026-05-05 05:24 37.21014 -90.66428 31261 ft 466 kts 201°
2026-05-05 05:25 37.17962 -90.67666 31433 ft 460 kts 208°
2026-05-05 05:25 37.15032 -90.69226 31640 ft 455 kts 213°
2026-05-05 05:25 37.12220 -90.71038 31753 ft 456 kts 216°
2026-05-05 05:26 37.06580 -90.74792 31814 ft 464 kts 214°
2026-05-05 05:26 37.00754 -90.78426 31825 ft 466 kts 214°
2026-05-05 05:27 36.94975 -90.82033 31816 ft 469 kts 214°
2026-05-05 05:27 36.86194 -90.87504 31829 ft 469 kts 214°
2026-05-05 05:28 36.80352 -90.91131 31822 ft 468 kts 214°
2026-05-05 05:28 36.74529 -90.94738 31822 ft 466 kts 214°
2026-05-05 05:29 36.68726 -90.98334 31816 ft 465 kts 214°
2026-05-05 05:29 36.62929 -91.01920 31826 ft 465 kts 214°
2026-05-05 05:30 36.57133 -91.05496 31832 ft 464 kts 214°
2026-05-05 05:30 36.51346 -91.09060 31829 ft 464 kts 215°
2026-05-05 05:31 36.45561 -91.12624 31836 ft 464 kts 215°
2026-05-05 05:31 36.39811 -91.16166 31841 ft 464 kts 215°
2026-05-05 05:32 36.34019 -91.19733 31847 ft 464 kts 215°
2026-05-05 05:32 36.28240 -91.23323 31807 ft 464 kts 216°
2026-05-05 05:33 36.25396 -91.25072 31479 ft 450 kts 216°
2026-05-05 05:33 36.22595 -91.26731 31040 ft 441 kts 216°
2026-05-05 05:33 36.19863 -91.28315 30683 ft 436 kts 216°
2026-05-05 05:33 36.17222 -91.30100 30509 ft 417 kts 227°
2026-05-05 05:34 36.14841 -91.32140 30332 ft 426 kts 217°
2026-05-05 05:34 36.11963 -91.33316 30171 ft 449 kts 199°
2026-05-05 05:34 36.08771 -91.33405 30033 ft 467 kts 184°
2026-05-05 05:34 36.05544 -91.32815 29935 ft 472 kts 178°
2026-05-05 05:35 36.02367 -91.31909 29811 ft 478 kts 172°
2026-05-05 05:35 35.99235 -91.30362 29675 ft 495 kts 156°
2026-05-05 05:35 35.96444 -91.27790 29554 ft 507 kts 139°
2026-05-05 05:35 35.94201 -91.24393 29452 ft 513 kts 126°
2026-05-05 05:36 35.92205 -91.20736 29322 ft 514 kts 127°
2026-05-05 05:36 35.89998 -91.17277 29185 ft 512 kts 135°
2026-05-05 05:36 35.87497 -91.14189 28831 ft 507 kts 141°
2026-05-05 05:36 35.85782 -91.12247 28659 ft 504 kts 142°
2026-05-05 05:37 35.83204 -91.09330 28390 ft 501 kts 142°
2026-05-05 05:37 35.80462 -91.06767 28108 ft 490 kts 153°
2026-05-05 05:37 35.77509 -91.04727 27843 ft 481 kts 160°
2026-05-05 05:37 35.74480 -91.03019 27587 ft 477 kts 163°
2026-05-05 05:38 35.71456 -91.01376 27337 ft 474 kts 162°
2026-05-05 05:38 35.68464 -90.99675 27067 ft 472 kts 161°
2026-05-05 05:38 35.65522 -90.97915 26470 ft 468 kts 160°
2026-05-05 05:38 35.62623 -90.96165 25973 ft 462 kts 160°
2026-05-05 05:39 35.59750 -90.94441 25502 ft 456 kts 160°
2026-05-05 05:39 35.56911 -90.92755 25033 ft 450 kts 160°
2026-05-05 05:39 35.54121 -90.91111 24365 ft 440 kts 160°
2026-05-05 05:39 35.51448 -90.89310 23413 ft 440 kts 147°
2026-05-05 05:40 35.49359 -90.86582 22324 ft 440 kts 124°
2026-05-05 05:40 35.48043 -90.83223 21371 ft 433 kts 111°
2026-05-05 05:40 35.47054 -90.79773 20541 ft 423 kts 109°
2026-05-05 05:40 35.46107 -90.76435 20043 ft 406 kts 111°
2026-05-05 05:41 35.45132 -90.73297 19556 ft 391 kts 113°
2026-05-05 05:41 35.44109 -90.70267 19083 ft 379 kts 114°
2026-05-05 05:41 35.43105 -90.67331 18625 ft 368 kts 114°
2026-05-05 05:41 35.42139 -90.64466 18161 ft 359 kts 114°
2026-05-05 05:42 35.41272 -90.61618 17354 ft 358 kts 108°
2026-05-05 05:42 35.40614 -90.58638 16530 ft 361 kts 104°
2026-05-05 05:42 35.40020 -90.55671 15862 ft 356 kts 104°
2026-05-05 05:42 35.39373 -90.52753 15201 ft 353 kts 106°
2026-05-05 05:43 35.38674 -90.49873 14884 ft 350 kts 107°
2026-05-05 05:43 35.37989 -90.47048 14541 ft 349 kts 107°
2026-05-05 05:43 35.37306 -90.44192 13852 ft 347 kts 106°
2026-05-05 05:43 35.36641 -90.41354 13109 ft 345 kts 105°
2026-05-05 05:44 35.35989 -90.38537 12377 ft 342 kts 105°
2026-05-05 05:44 35.35335 -90.35742 11660 ft 339 kts 106°
2026-05-05 05:44 35.34682 -90.32979 10900 ft 337 kts 106°
2026-05-05 05:44 35.34029 -90.30230 10139 ft 335 kts 106°
2026-05-05 05:45 35.33389 -90.27532 9369 ft 332 kts 106°
2026-05-05 05:45 35.32745 -90.24793 8554 ft 329 kts 107°
2026-05-05 05:45 35.32122 -90.22116 7767 ft 324 kts 107°
2026-05-05 05:45 35.31512 -90.19511 7003 ft 320 kts 108°
2026-05-05 05:46 35.30896 -90.16914 6199 ft 317 kts 108°
2026-05-05 05:46 35.30286 -90.14351 5583 ft 306 kts 109°
2026-05-05 05:46 35.29706 -90.11930 5245 ft 288 kts 109°
2026-05-05 05:46 35.29158 -90.09634 4964 ft 275 kts 110°
2026-05-05 05:47 35.28630 -90.07437 4841 ft 263 kts 110°
2026-05-05 05:47 35.28125 -90.05319 4650 ft 256 kts 110°
2026-05-05 05:47 35.27634 -90.03273 4624 ft 244 kts 111°
2026-05-05 05:47 35.27163 -90.01309 4637 ft 234 kts 111°
2026-05-05 05:48 35.26693 -89.99446 4593 ft 230 kts 118°
2026-05-05 05:48 35.25727 -89.98017 4472 ft 212 kts 160°
2026-05-05 05:48 35.24373 -89.97861 4417 ft 191 kts 205°
2026-05-05 05:48 35.23186 -89.98576 4286 ft 190 kts 200°
2026-05-05 05:49 35.21890 -89.98458 4356 ft 192 kts 165°
2026-05-05 05:49 35.20656 -89.97934 4384 ft 184 kts 171°
2026-05-05 05:49 35.19431 -89.97496 4218 ft 183 kts 174°
2026-05-05 05:49 35.18194 -89.97252 3883 ft 176 kts 181°
2026-05-05 05:50 35.17102 -89.97163 3781 ft 138 kts 184°
2026-05-05 05:50 35.16136 -89.97110 3484 ft 138 kts 186°
2026-05-05 05:50 35.15222 -89.97118 3057 ft 125 kts 192°
2026-05-05 05:50 35.14433 -89.97252 2779 ft 106 kts 197°
2026-05-05 05:51 35.13703 -89.97293 2389 ft 107 kts 186°
2026-05-05 05:51 35.12966 -89.97217 2049 ft 102 kts 184°
2026-05-05 05:51 35.12286 -89.97207 1857 ft 97 kts 190°
2026-05-05 05:51 35.11625 -89.97254 1819 ft 95 kts 189°
2026-05-05 05:52 35.10956 -89.97266 1714 ft 98 kts 188°
2026-05-05 05:52 35.10263 -89.97284 1605 ft 99 kts 190°
2026-05-05 05:52 35.09581 -89.97310 1486 ft 99 kts 184°
2026-05-05 05:52 35.08869 -89.97265 1407 ft 106 kts 180°
2026-05-05 05:53 35.08135 -89.97268 1391 ft 97 kts 188°
2026-05-05 05:53 35.07499 -89.97353 968 ft 100 kts 191°
2026-05-05 05:53 35.06706 -89.97309 685 ft 121 kts 178°
2026-05-05 05:53 35.05885 -89.97297 564 ft 115 kts 182°
2026-05-05 05:54 35.05096 -89.97287 404 ft 111 kts 182°
2026-05-05 05:54 35.04383 -89.97289 327 ft 87 kts 179°
2026-05-05 05:54 35.03871 -89.97281 327 ft 63 kts 179°
2026-05-05 05:54 35.03491 -89.97274 326 ft 48 kts 176°
2026-05-05 05:55 35.03299 -89.97316 328 ft 24 kts 191°
2026-05-05 05:55 35.03184 -89.97398 326 ft 12 kts 243°
2026-05-05 05:55 35.03182 -89.97404 325 ft 0 kts 254°
2026-05-05 05:56 35.03181 -89.97424 326 ft 3 kts 288°
2026-05-05 05:56 35.03196 -89.97447 325 ft 6 kts 312°
2026-05-05 05:56 35.03242 -89.97489 323 ft 9 kts 342°
2026-05-05 05:56 35.03278 -89.97493 320 ft 2 kts 12°
2026-05-05 05:57 35.03322 -89.97459 325 ft 9 kts 34°
2026-05-05 05:57 35.03378 -89.97448 325 ft 10 kts
2026-05-05 05:57 35.03451 -89.97443 326 ft 11 kts
2026-05-05 05:57 35.03531 -89.97440 326 ft 12 kts 358°
2026-05-05 05:58 35.03621 -89.97443 326 ft 14 kts 358°
2026-05-05 05:58 35.03731 -89.97447 326 ft 17 kts 358°
2026-05-05 05:58 35.03851 -89.97451 326 ft 18 kts 358°
2026-05-05 05:58 35.03977 -89.97455 327 ft 19 kts 358°
2026-05-05 05:59 35.04110 -89.97460 326 ft 20 kts 358°
2026-05-05 05:59 35.04251 -89.97465 327 ft 21 kts 358°
2026-05-05 05:59 35.04393 -89.97473 325 ft 18 kts 335°
2026-05-05 05:59 35.04424 -89.97558 323 ft 8 kts 262°
2026-05-05 06:00 35.04416 -89.97631 324 ft 9 kts 262°
2026-05-05 06:00 35.04411 -89.97685 323 ft 3 kts 262°
2026-05-05 06:00 35.04410 -89.97689 323 ft 0 kts 262°
2026-05-05 06:00 35.04410 -89.97692 324 ft 4 kts 262°